STARLINK-35148

Last updated on Mon Oct 20 2025 00:02:07 GMT+0000 (Coordinated Universal Time)

1 65844U 25221X 25292.25002315 -.01549562 00000+0 -28461-1 0 9992 2 65844 53.1602 27.7831 0001037 86.7321 272.6666 15.51576986 4431
UTC large
Height (km)
Speed (km/s)
/
Latitude / Longitude
Inclination (degrees)
Orbital Period (minutes)
Azimuth
Elevation
Range (km)
Doppler Factor

Next 0 passes for location: London (51.5072 / 0.1276)

Sorry there are no passes over London.